Voltar ao catálogo

STARLINK-5926

AtivoComunicaçõesVLEO
NORAD 55944·PAYLOAD·🇺🇸 United States

Lançado Mar 17, 2023 de Vandenberg Space Force Base

Loading…

Próximas Passagens (próximas 24 horas)

TLE

AtualizadoSource: CelesTrak SupGP

Época: Sep 15, 2026, 01:43 UTC

1 55944C 23037AG  26258.07201389  .00063734  00000+0  53398-2 0  2585
2 55944  70.0016 166.8236 0002949 270.8971 358.0145 14.98308652    16

Acompanhe STARLINK-5926 em tempo real com AllMySat

Download on the App Store